Location: Friendship Estates
(38.3668°N, 75.2238°W)
Time: 02:50:12
(UTC+00:00)

Daily predictions for brighter satellites

Satellite Brightness Start Highest point End
(mag) Time Altitude Azimuth Time Altitude Azimuth Time Altitude Azimuth
Cosmos 1092 Rocket 3.9 00:01:37 10° S 00:07:52 69° E 00:14:07 10° NNE
CZ-4 R/B 1.3 00:04:27 10° SSE 00:08:37 82° ENE 00:12:48 10° N
Cosmos 2084 Rocket 4.4 00:06:17 10° N 00:09:16 26° NE 00:09:16 26° NE
Okean-O 3.7 00:13:11 27° NE 00:13:11 27° NE 00:16:06 10° N
OAO 2 Rocket 3.5 00:07:27 10° W 00:12:16 57° S 00:13:52 38° SE
Cosmos 2263 Rocket 3.2 00:10:51 10° NW 00:16:17 47° WSW 00:21:41 10° S
Meteor 1-24 Rocket 3.5 00:14:25 10° N 00:19:44 67° E 00:22:59 24° SSE
Cosmos 1486 Rocket 4.0 00:16:06 10° S 00:21:19 60° ESE 00:26:34 10° NNE
Cosmos 1814 Rocket 4.5 00:16:29 10° NNW 00:21:37 59° WSW 00:26:40 10° S
Feng Yun 1-1 Rocket 4.1 00:16:48 10° SSE 00:22:19 88° W 00:27:45 10° NNW
USA 290 4.3 00:20:10 10° SSW 00:21:12 19° SSW 00:21:12 19° SSW
Cosmos 2208 Rocket 3.9 00:22:15 10° NNW 00:27:41 80° ENE 00:29:57 36° SSE
Cosmos 1782 Rocket 3.7 00:23:24 10° SSW 00:27:43 71° W 00:32:04 10° N
YAOGAN 1 4.0 00:27:42 10° SSW 00:31:42 37° W 00:35:43 10° NNW
Cosmos 1844 4.2 00:27:04 10° N 00:31:55 38° NE 00:31:55 38° NE
Meteor 1-22 Rocket 4.5 00:27:00 10° SSW 00:32:20 65° W 00:37:53 10° N
USA 186 4.2 00:35:19 17° N 00:35:19 17° N 00:36:14 10° N
Cosmos 2333 Rocket 3.1 00:27:51 10° S 00:31:02 31° SSE 00:31:02 31° SSE
CSL-04 Debris 4.0 00:33:10 49° SE 00:34:31 68° ENE 00:39:53 10° N
Cosmos 1025 Rocket 3.2 00:31:59 10° N 00:35:34 57° NNE 00:35:34 57° NNE
Lacrosse 4 Rocket 2.2 00:32:33 10° SW 00:36:29 50° WNW 00:39:21 18° N
Okean O Rocket 2.8 00:32:36 10° S 00:36:42 41° W 00:40:51 10° NNW
DNEPR-1 R/B 4.3 00:33:31 10° SW 00:37:58 60° NW 00:43:19 10° NNE
USA 267 3.5 00:36:35 29° SSE 00:40:05 66° SW 00:46:37 10° NW
Cosmos 2360 Rocket 2.1 00:35:08 10° SSW 00:40:47 89° ESE 00:46:28 10° NNE
USA 81 3.9 00:38:31 10° N 00:43:50 89° W 00:45:30 45° S
ATLAS 5 CENTAUR R/B 4.2 00:28:12 10° WSW 00:52:46 30° SSW 00:56:49 24° SSE
CSL-04 Rocket 3.6 01:00:00 77° SW 01:00:14 80° WSW 01:05:39 10° NNW
Cosmos 1975 Rocket 3.9 00:58:05 10° NNW 01:01:50 48° WNW 01:01:50 48° WNW
CZ-3 Stage 3 4.4 00:57:27 10° WSW 01:03:56 47° S 01:10:38 35° SE
Cosmos 2322 Rocket 3.7 01:05:04 10° SW 01:10:12 34° WNW 01:15:23 10° N
COSMOS 2455 4.1 01:10:39 10° SSW 01:13:22 29° SSW 01:13:22 29° SSW
Cosmos 1553 Rocket 4.1 01:14:23 10° N 01:20:36 77° WNW 01:20:36 77° WNW
Resurs 01 Rocket 4.4 01:31:33 11° N 01:31:33 11° N 01:31:41 10° N
Aureole 1 Rocket 4.5 01:21:28 10° SSW 01:29:05 64° WNW 01:35:14 10° NNE
Cosmos 1844 Rocket 3.9 01:35:34 10° NW 01:39:43 40° WNW 01:39:43 40° WNW
Cosmos 2082 Rocket 3.9 07:44:27 28° NE 07:44:27 28° NE 07:47:10 10° NNE
CENTAUR R/B 3.5 07:48:48 39° ENE 07:48:48 39° ENE 07:53:26 10° NE
ATLAS CENTAUR R/B 4.4 07:55:59 14° NNE 07:55:59 14° NNE 07:56:39 10° NNE
Centaur D AC-29 3.6 07:56:25 31° SSE 07:56:25 31° SSE 08:06:52 10° ESE
Atlas Centaur 2 4.0 08:05:30 33° SSE 08:05:30 33° SSE 08:10:26 10° SE
NOSS 3-2 (A) 3.6 08:23:47 60° NNE 08:23:47 60° NNE 08:28:45 10° NNE
NOSS 3-2 (C) 3.9 08:23:31 44° SE 08:23:51 45° ESE 08:29:27 10° NE
Cosmos 1980 Rocket 3.0 08:29:18 41° SE 08:29:18 41° SE 08:32:53 10° SSE
USA 238 DEB 3.9 08:37:17 40° S 08:39:22 58° ESE 08:45:54 10° NE
USA 238 4.0 08:37:21 39° S 08:39:29 58° ESE 08:45:59 10° NE
SL-19 R/B 4.2 08:33:30 10° NNE 08:39:33 79° WNW 08:39:33 79° WNW
ALOS 3.8 08:36:49 10° N 08:38:59 27° N 08:38:59 27° N
Cosmos 1802 Rocket 4.3 08:36:46 16° S 08:41:51 67° E 08:48:06 10° NNE
Meteor 1-19 Rocket 4.4 08:40:05 38° SSE 08:42:03 63° E 08:47:24 10° NNE
BREEZE-M DEB (TANK) 3.9 08:46:07 53° SW 08:46:19 54° SSW 09:01:57 10° SE
Cosmos 2173 Rocket 3.8 08:47:21 55° SSW 08:48:48 82° W 08:54:56 10° N
YAOGAN 6 4.2 08:47:51 10° NNE 08:51:08 33° E 08:52:01 28° SE
Cosmos 2278 4.0 08:46:18 10° NNW 08:51:56 64° ENE 08:57:31 10° SSE
SL-16 R/B 4.0 08:47:07 10° N 08:52:08 31° ENE 08:57:07 10° ESE
Lacrosse 5 rocket 4.0 08:52:12 11° SSE 08:55:12 19° ESE 08:58:22 10° ENE
METEOR-M 4.0 08:54:00 10° N 08:59:22 80° WNW 09:00:48 50° SSW
Cosmos 1484 Rocket 3.3 08:55:42 10° NNE 08:59:37 57° E 09:00:33 43° SSE
USA 276 4.1 09:01:25 27° NE 09:01:25 27° NE 09:02:57 10° NE
Cosmos 1741 Rocket 4.2 08:55:23 10° NNW 09:00:36 69° ENE 09:05:47 10° SSE
Lacrosse 4 Rocket 3.0 08:57:39 10° N 09:01:43 36° ENE 09:05:49 10° SE
IRS-P3 4.0 08:56:36 10° NNE 09:01:58 90° WNW 09:04:34 32° SSW
Cosmos 1331 Rocket 3.8 09:00:54 50° SSW 09:02:17 89° E 09:07:28 10° NNE
Helios 1B rocket 3.3 09:01:01 10° N 09:03:40 37° NNW 09:03:40 37° NNW
Okean 1 4.1 09:10:01 39° NNW 09:10:01 39° NNW 09:12:43 10° N
ATLAS 3B CENTAUR R/B 4.1 09:07:43 31° SW 09:12:28 49° S 09:24:22 10° ESE
CZ-2C R/B 2.5 09:11:12 10° SSE 09:16:26 86° WSW 09:21:48 10° NNW
ARIANE 5 R/B 2.3 09:11:48 10° N 09:16:47 67° WNW 09:19:01 32° SW
Meteor 1-27 Rocket 4.5 09:17:57 34° WNW 09:17:57 34° WNW 09:22:58 10° N
Cosmos 1110 Rocket 4.0 09:17:28 44° WSW 09:18:49 58° WNW 09:23:56 10° N
ERS-1 4.5 09:15:51 10° N 09:21:01 67° WNW 09:24:24 22° SSW
Cosmos 1869 Rocket 4.0 09:17:24 10° N 09:21:48 62° E 09:26:06 10° SSE
Delta 2 Rocket 3.6 09:22:25 40° S 09:22:25 40° S 09:25:20 10° ESE
X-37B 0.9 09:23:08 55° NE 09:23:08 55° NE 09:25:48 10° ESE
CZ-2C R/B 3.6 09:19:20 10° NNE 09:24:59 66° E 09:30:17 10° S
Cosmos 1452 Rocket 4.2 09:25:16 33° WNW 09:25:31 33° WNW 09:30:18 10° N
Cosmos 2082 Rocket 3.5 09:26:19 22° NW 09:26:19 22° NW 09:30:23 10° N
H-2A R/B 3.4 09:24:06 10° NNE 09:27:41 52° E 09:31:17 10° S
CZ-2C R/B 3.4 09:25:02 10° N 09:28:34 27° NW 09:28:34 27° NW
Cosmos 2016 Rocket 4.0 09:26:24 10° SSW 09:32:39 59° W 09:38:56 10° N
Envisat 2.9 09:27:43 10° N 09:32:49 82° WNW 09:37:53 10° SSW
Meteor 1-18 Rocket 4.1 09:27:43 10° SSW 09:33:25 77° W 09:39:03 10° N
IKONOS-2 4.4 09:30:50 10° SSE 09:35:03 83° W 09:39:18 10° NNW
SL-08 R/B 4.4 09:29:23 10° SSW 09:35:25 65° W 09:41:32 10° N
Cosmos 2360 Rocket 4.0 09:30:49 10° N 09:35:50 32° ENE 09:40:49 10° ESE
CENTAUR R/B 3.3 09:36:00 25° WNW 09:38:07 31° NW 09:44:10 10° NNE
PSLV R/B 4.1 09:34:58 10° NNE 09:39:13 61° E 09:43:25 10° S
DELTA 2 DEB (DPAF) 4.1 09:36:17 10° S 09:40:36 56° W 09:44:56 10° NNW
CZ-2D R/B 3.8 09:38:36 10° N 09:42:21 40° WNW 09:44:07 26° SW
DELTA 2 R/B (1) 3.5 09:40:03 26° W 09:43:21 79° SSW 09:48:57 10° ESE
Cosmos 1933 Rocket 4.2 09:39:37 10° NNW 09:43:33 33° W 09:47:28 10° SSW
Cosmos 1242 Rocket 3.1 09:40:16 10° N 09:43:38 55° E 09:46:56 10° SSE
Cosmos 1975 2.6 09:41:47 10° N 09:45:45 77° W 09:49:41 10° S
FALCON 9 DEB 3.7 09:46:10 18° SSW 09:48:12 50° SE 09:51:18 10° ENE
SL-8 R/B 4.4 09:44:51 12° SSW 09:49:00 50° SE 09:53:37 10° ENE
CZ-2C R/B 2.9 09:45:14 10° NNE 09:49:04 76° ESE 09:52:57 10° S
Atlas Centaur 2 4.3 09:48:02 16° WSW 09:51:38 22° SSW 09:57:16 10° SSE
SL-08 R/B 3.4 09:48:11 10° S 09:52:44 53° W 09:57:23 10° NNW
Cosmos 489 Rocket 4.4 09:46:46 10° NNW 09:53:01 83° WSW 09:59:13 10° SSE
Cosmos 2061 Rocket 4.2 09:48:09 10° SSW 09:54:04 46° WNW 10:00:01 10° N
Meteor 2-4 Rocket 3.8 09:48:58 10° SSW 09:54:38 58° WNW 10:00:10 10° N
Cosmos 1805 4.5 09:53:26 10° N 09:57:10 45° E 10:00:52 10° SSE
BREEZE M DEB (TANK) 4.2 09:59:02 15° NW 10:00:45 24° N 10:05:11 10° NE
SKYMED 2 4.5 09:57:17 10° SSE 10:01:30 52° ENE 10:05:43 10° N
Cosmos 1992 Rocket 4.5 09:57:30 10° S 10:02:38 65° ESE 10:07:47 10° NNE
USA 290 4.1 10:02:01 10° N 10:04:58 33° ENE 10:07:53 10° SE
Cosmos 2322 Rocket 2.2 09:59:54 10° NNW 10:05:37 86° ENE 10:11:15 10° SSE
Cosmos 1733 3.5 10:03:23 10° N 10:07:07 69° E 10:10:50 10° SSE
GP-B 4.0 10:03:24 10° SW 10:07:09 27° W 10:10:55 10° NNW
Cosmos 2237 4.2 10:02:20 10° NNW 10:08:03 84° WSW 10:13:44 10° SSE
Cosmos 1980 Rocket 3.8 10:11:20 12° WSW 10:11:20 12° WSW 10:12:52 10° WSW
Cosmos 2233 Rocket 4.3 10:07:52 10° SSW 10:13:53 46° WNW 10:19:56 10° N
NOSS 3-2 (C) 4.3 10:10:59 13° W 10:14:56 28° NW 10:20:15 10° NNE
CZ-4B R/B 3.6 10:12:06 10° NNE 10:17:25 87° WNW 10:22:40 10° SSW
Cosmos 1862 Rocket 3.5 10:13:51 10° S 10:18:19 81° W 10:22:47 10° N
COSMOS 2455 3.3 10:13:06 10° NNW 10:19:07 68° ENE 10:25:05 10° SE
YAOGAN 6 4.4 10:22:15 10° NW 10:24:05 13° WNW 10:25:53 10° W
SJ 16-02 4.0 10:24:21 10° N 10:27:52 23° ENE 10:31:23 10° ESE
SJ-12 4.1 10:25:27 10° N 10:29:25 50° WNW 10:33:22 10° SSW
Cosmos 1726 2.4 10:25:58 10° N 10:29:35 72° E 10:33:09 10° SSE
Cosmos 1464 Rocket 4.2 10:23:29 10° S 10:29:40 79° E 10:35:50 10° N
Cosmos 2228 Rocket 4.3 10:27:01 10° SW 10:30:28 22° WNW 10:33:54 10° NNW
SKYMED 3 4.4 10:29:03 10° S 10:33:13 80° WSW 10:37:23 10° NNW
Meteor 1-13 Rocket 4.2 10:27:59 10° SSW 10:33:36 81° W 10:39:09 10° N
Lacrosse 5 rocket 1.7 10:29:25 10° WSW 10:33:53 57° NW 10:38:20 10° NE
SL-16 R/B 2.8 10:31:07 10° NW 10:36:13 35° WSW 10:41:17 10° SSW
